Date String (YYYY-MM-DD hh:mm:ss) UTC,Instrument flags,Ambient pressure (hPa),Sample flow (lpm),Bypass flow (lpm),Sample temperature (°C),Ambient temperature (°C),ASC tube jacket temperature (°C),LED temperature (°C),Box temperature (°C),Sample RH (%),Span deviation,Mass concentration (μg/m³),Mass concentration (μg/m³),Mass concentration (μg/m³)
DateTimeUTC,F1_M11,P_M11,Q1_M11,Q2_M11,T1_M11,T2_M11,T3_M11,T4_M11,T5_M11,U1_M11,ZSPAN_M11,X2_M11,X0_M11,X1_M11
2022-10-12 11:00:00,,0826.0,5.02,0.00,27.3,25.6,00.0,36.2,29.2,18.2,0002.2,0006.33,0015.10,0005.30
2022-10-12 11:01:00,,0826.0,4.98,0.00,27.3,25.6,00.0,36.2,29.2,18.2,0002.6,0006.35,0015.05,0005.33
2022-10-12 11:02:00,,0826.0,5.01,0.00,27.3,25.6,00.0,36.2,29.1,18.2,0002.4,0006.34,0015.33,0005.34
2022-10-12 11:03:00,,0826.0,5.00,0.00,27.3,25.5,00.0,36.2,29.1,18.3,0002.5,0006.33,0015.18,0005.34
2022-10-12 11:04:00,,0826.0,5.00,0.00,27.3,25.5,00.0,36.1,29.1,18.3,0002.9,0006.33,0014.97,0005.35
2022-10-12 11:05:00,,0826.0,5.00,0.00,27.3,25.5,00.0,36.1,29.1,18.3,0002.9,0006.37,0013.69,0005.36
2022-10-12 11:06:00,,0826.0,4.99,0.00,27.3,25.5,00.0,36.1,29.1,18.4,0002.7,0006.41,0014.23,0005.36
2022-10-12 11:07:00,,0826.0,4.99,0.00,27.3,25.5,00.0,36.1,29.1,18.4,0002.4,0006.46,0014.83,0005.36
2022-10-12 11:08:00,,0826.0,5.01,0.00,27.3,25.5,00.0,36.1,29.1,18.4,0002.4,0006.45,0015.35,0005.37
2022-10-12 11:09:00,,0826.0,4.99,0.00,27.2,25.5,00.0,36.1,29.1,18.4,0002.3,0006.43,0015.33,0005.38
2022-10-12 11:10:00,,0826.0,5.01,0.00,27.2,25.5,00.0,36.1,29.1,18.4,0002.5,0006.39,0015.25,0005.37
2022-10-12 11:11:00,,0826.1,4.99,0.00,27.2,25.5,00.0,36.1,29.1,18.5,0002.5,0006.37,0015.32,0005.36
2022-10-12 11:12:00,,0826.2,5.00,0.00,27.2,25.4,00.0,36.1,29.0,18.4,0002.2,0006.37,0014.91,0005.35
2022-10-12 11:13:00,,0826.2,5.01,0.00,27.2,25.4,00.0,36.1,29.0,18.4,0002.4,0006.41,0014.80,0005.34
2022-10-12 11:14:00,,0826.1,4.99,0.00,27.2,25.4,00.0,36.1,29.0,18.3,0002.0,0006.42,0015.19,0005.35
2022-10-12 11:15:00,,0826.2,5.01,0.00,27.2,25.4,00.0,36.0,29.0,18.2,0000.5,0006.40,0014.57,0005.36
2022-10-12 11:16:00,,0826.2,5.01,0.00,27.2,25.4,00.0,36.0,29.0,18.3,0000.0,0006.43,0014.53,0005.37
2022-10-12 11:17:00,,0826.2,4.99,0.00,27.2,25.4,00.0,36.0,29.0,18.3,0000.4,0006.45,0014.05,0005.37
2022-10-12 11:18:00,,0826.2,5.01,0.00,27.2,25.4,00.0,36.0,29.0,18.3,0000.0,0006.50,0013.77,0005.38
2022-10-12 11:19:00,,0826.2,5.01,0.00,27.1,25.4,00.0,36.0,28.9,18.2,0000.0,0006.52,0013.62,0005.38
2022-10-12 11:20:00,,0826.2,4.99,0.00,27.1,25.4,00.0,36.0,28.9,18.2,0000.0,0006.51,0013.80,0005.37
2022-10-12 11:21:00,,0826.2,5.00,0.00,27.1,25.4,00.0,36.0,28.9,18.3,0000.0,0006.54,0014.14,0005.38
2022-10-12 11:22:00,,0826.2,5.01,0.00,27.1,25.4,00.0,36.0,28.9,18.3,0000.0,0006.55,0014.83,0005.41
2022-10-12 11:23:00,,0826.2,4.99,0.00,27.1,25.4,00.0,36.0,28.9,18.3,0000.0,0006.52,0015.35,0005.42
2022-10-12 11:24:00,,0826.2,5.01,0.00,27.1,25.3,00.0,36.0,28.9,18.4,0000.0,0006.52,0015.15,0005.44
2022-10-12 11:25:00,,0826.2,5.00,0.00,27.1,25.3,00.0,36.0,28.9,18.3,0000.0,0006.52,0014.84,0005.44
2022-10-12 11:26:00,,0826.2,4.99,0.00,27.1,25.3,00.0,35.9,28.9,18.4,0000.0,0006.56,0014.97,0005.44
2022-10-12 11:27:00,,0826.2,5.00,0.00,27.1,25.3,00.0,35.9,28.9,18.4,0000.0,0006.52,0014.87,0005.45
2022-10-12 11:28:00,,0826.3,4.99,0.00,27.1,25.3,00.0,35.9,28.9,18.4,0001.2,0006.53,0014.87,0005.46
2022-10-12 11:29:00,,0826.3,5.00,0.00,27.1,25.3,00.0,35.9,28.9,18.2,0001.8,0006.47,0014.29,0005.47
2022-10-12 11:30:00,,0826.3,5.00,0.00,27.1,25.3,00.0,35.9,28.9,18.2,0001.4,0006.44,0013.89,0005.48
2022-10-12 11:31:00,,0826.3,5.00,0.00,27.0,25.3,00.0,35.9,28.9,18.4,0001.5,0006.50,0014.01,0005.49
2022-10-12 11:32:00,,0826.2,5.01,0.00,27.0,25.3,00.0,35.9,28.9,18.4,0001.1,0006.49,0013.99,0005.48
2022-10-12 11:33:00,,0826.4,4.99,0.00,27.0,25.3,00.0,35.9,28.9,18.4,0001.0,0006.54,0013.30,0005.49
2022-10-12 11:34:00,,0826.3,5.01,0.00,27.0,25.3,00.0,35.9,28.9,18.5,0000.9,0006.56,0013.54,0005.49
2022-10-12 11:35:00,,0826.3,5.02,0.00,27.0,25.3,00.0,35.9,28.9,18.6,0001.1,0006.51,0013.02,0005.50
2022-10-12 11:36:00,,0826.2,4.99,0.00,27.0,25.3,00.0,35.9,28.9,18.7,0001.4,0006.52,0012.97,0005.51
2022-10-12 11:37:00,,0826.3,5.01,0.00,27.0,25.3,00.0,35.9,28.9,18.7,0001.9,0006.51,0013.17,0005.51
2022-10-12 11:38:00,,0826.2,4.99,0.00,27.0,25.3,00.0,35.8,28.8,18.7,0001.9,0006.52,0013.79,0005.51
2022-10-12 11:39:00,,0826.2,5.01,0.00,27.0,25.3,00.0,35.8,28.8,18.6,0001.8,0006.47,0013.57,0005.48
2022-10-12 11:40:00,,0826.3,5.00,0.00,27.0,25.3,00.0,35.8,28.8,18.6,0001.7,0006.44,0013.56,0005.45
2022-10-12 11:41:00,,0826.3,4.99,0.00,27.0,25.3,00.0,35.8,28.8,18.7,0001.3,0006.45,0014.38,0005.44
2022-10-12 11:42:00,,0826.3,5.01,0.00,27.0,25.3,00.0,35.8,28.8,18.7,0000.0,0006.40,0014.07,0005.43
2022-10-12 11:43:00,,0826.4,4.99,0.00,27.0,25.3,00.0,35.8,28.8,18.7,0000.0,0006.42,0015.11,0005.43
2022-10-12 11:44:00,,0826.4,5.01,0.00,27.0,25.3,00.0,35.8,28.8,18.7,0000.0,0006.38,0015.18,0005.41
2022-10-12 11:45:00,,0826.4,5.00,0.00,27.0,25.3,00.0,35.8,28.8,18.8,0001.1,0006.40,0014.48,0005.39
2022-10-12 11:46:00,,0826.5,5.00,0.00,27.0,25.3,00.0,35.8,28.8,18.8,0001.5,0006.43,0015.08,0005.38
2022-10-12 11:47:00,,0826.5,5.01,0.00,27.0,25.3,00.0,35.8,28.8,18.7,0001.9,0006.46,0015.53,0005.36
2022-10-12 11:48:00,,0826.5,4.99,0.00,27.0,25.3,00.0,35.8,28.8,18.6,0001.4,0006.44,0015.63,0005.35
2022-10-12 11:49:00,,0826.5,5.01,0.00,27.0,25.2,00.0,35.8,28.8,18.6,0001.1,0006.44,0015.30,0005.34
2022-10-12 11:50:00,,0826.5,4.99,0.00,27.0,25.3,00.0,35.8,28.8,18.6,0001.1,0006.48,0015.85,0005.33
2022-10-12 11:51:00,,0826.5,5.00,0.00,27.0,25.2,00.0,35.8,28.8,18.6,0000.8,0006.51,0017.02,0005.34
2022-10-12 11:52:00,,0826.5,5.01,0.00,27.0,25.2,00.0,35.8,28.8,18.7,0000.7,0006.50,0016.53,0005.35
2022-10-12 11:53:00,,0826.5,4.99,0.00,27.0,25.3,00.0,35.8,28.8,18.7,0000.5,0006.50,0016.34,0005.35
2022-10-12 11:54:00,,0826.5,5.01,0.00,27.0,25.3,00.0,35.8,28.8,18.7,-000.0,0006.48,0015.01,0005.36
2022-10-12 11:55:00,,0826.5,4.99,0.00,27.0,25.3,00.0,35.8,28.8,18.7,0000.3,0006.47,0014.73,0005.37
2022-10-12 11:56:00,,0826.5,5.00,0.00,26.9,25.3,00.0,35.8,28.7,18.7,0000.2,0006.45,0015.00,0005.38
2022-10-12 11:57:00,,0826.5,5.00,0.00,26.9,25.3,00.0,35.8,28.8,18.7,0000.7,0006.48,0014.93,0005.40
2022-10-12 11:58:00,,0826.5,5.00,0.00,26.9,25.3,00.0,35.8,28.8,18.7,0000.8,0006.47,0014.35,0005.41
2022-10-12 11:59:00,,0826.5,5.00,0.00,26.9,25.3,00.0,35.8,28.8,18.7,0001.3,0006.45,0014.07,0005.40
